Beale AFB, CA

12:13 PM PST on February 20, 2018 (GMT -0800)
Beale Air Force Base

Weather History for KBAB - March, 2013

Change the Weather History Date:

Sunday, March 10, 2013

  Actual Average Record
Temperature  
Mean Temperature 50 °F -  
Max Temperature 64 °F 64 °F 82 °F (2004)
Min Temperature 37 °F 43 °F 32 °F (2009)
Degree Days  
Heating Degree Days 14    
Moisture  
Dew Point 40 °F    
Average Humidity 65    
Maximum Humidity 82    
Minimum Humidity 41    
Precipitation  
Precipitation 0.00 in - - ()
Sea Level Pressure  
Sea Level Pressure 30.52 in    
Wind  
Wind Speed 7 mph (ESE)    
Max Wind Speed 12 mph    
Max Gust Speed -    
Visibility 10 miles    
Events      
Averages and records for this station are not official NWS values.
T = Trace of Precipitation, MM = Missing Value Source: NWS Daily Summary

Daily Weather History Graph

Daily Weather History Graph

Search for Another Location

Airport or City:

Trip Planner

Search our weather history database for the weather conditions in past years. The results will help you decide how hot, cold, wet, or windy it might be!

Date:

Astronomy

Mar. 10, 2013 Rise Set
Actual Time 7:24 AM PDT 7:08 PM PDT
Civil Twilight 6:57 AM PDT 7:34 PM PDT
Nautical Twilight 6:26 AM PDT 8:05 PM PDT
Astronomical Twilight 5:55 AM PDT 8:37 PM PDT
Moon 6:27 AM PDT (3/10) 6:21 PM PDT (3/10)
Length of Visible Light 12h 37m
Length of Day
11h 43m
Waning Crescent, 1% of the Moon is Illuminated
Mar 10
Waning Crescent
Mar 11
New
Mar 19
First Quarter
Mar 27
Full
Apr 2
Last Quarter

Hourly Weather History & Observations

Time (PDT) Temp. Windchill Dew Point Humidity Pressure Visibility Wind Dir Wind Speed Gust Speed Precip Events Conditions
12:58 AM 43.0 °F 36.8 °F 34.3 °F 72% 30.52 in 10.0 mi NNW 11.5 mph - N/A   Clear
1:58 AM 45.5 °F 41.3 °F 30.7 °F 56% 30.51 in 10.0 mi North 8.1 mph - N/A   Clear
3:58 AM 40.1 °F 34.7 °F 34.9 °F 82% 30.52 in 10.0 mi NW 8.1 mph - N/A   Clear
4:58 AM 37.9 °F 32.7 °F 31.5 °F 77% 30.54 in 10.0 mi ESE 6.9 mph - N/A   Clear
5:58 AM 42.6 °F 37.2 °F 35.2 °F 75% 30.55 in 10.0 mi ESE 9.2 mph - N/A   Clear
6:58 AM 41.7 °F 36.1 °F 36.3 °F 81% 30.56 in 10.0 mi East 9.2 mph - N/A   Clear
7:58 AM 40.8 °F 35.6 °F 34.0 °F 77% 30.57 in 10.0 mi East 8.1 mph - N/A   Clear
8:58 AM 47.1 °F - 37.6 °F 69% 30.58 in 10.0 mi SE 2.3 mph - N/A   Clear
9:58 AM 52.3 °F - 39.6 °F 62% 30.59 in 10.0 mi SSW 3.5 mph - N/A   Clear
10:58 AM 54.9 °F - 43.2 °F 65% 30.59 in 10.0 mi SSW 9.2 mph - N/A   Clear
11:58 AM 56.5 °F - 43.5 °F 62% 30.57 in 9.0 mi Calm Calm - N/A   Clear
12:58 PM 58.8 °F - 43.0 °F 56% 30.55 in 10.0 mi SE 4.6 mph - N/A   Clear
1:58 PM 61.2 °F - 43.3 °F 52% 30.52 in 10.0 mi SSE 3.5 mph - N/A   Clear
2:58 PM 62.4 °F - 43.9 °F 51% 30.50 in 10.0 mi Variable 1.2 mph - N/A   Clear
3:58 PM 63.9 °F - 41.2 °F 43% 30.50 in 10.0 mi Variable 2.3 mph - N/A   Clear
4:58 PM 64.8 °F - 40.5 °F 41% 30.48 in 10.0 mi Variable 1.2 mph - N/A   Clear
5:58 PM 64.6 °F - 41.0 °F 42% 30.48 in 10.0 mi SSE 5.8 mph - N/A   Clear
6:58 PM 59.2 °F - 43.9 °F 57% 30.48 in 10.0 mi SE 3.5 mph - N/A   Clear
7:58 PM 55.9 °F - 41.5 °F 58% 30.48 in 10.0 mi East 1.2 mph - N/A   Clear
8:58 PM 52.2 °F - 41.9 °F 68% 30.48 in 10.0 mi East 6.9 mph - N/A   Clear
9:58 PM 50.2 °F - 41.7 °F 73% 30.49 in 10.0 mi East 8.1 mph - N/A   Clear
10:58 PM 49.5 °F - 41.5 °F 74% 30.49 in 10.0 mi East 5.8 mph - N/A   Clear
11:58 PM 48.2 °F - 41.7 °F 78% 30.49 in 10.0 mi East 6.9 mph - N/A   Clear
12:58 AM 47.8 °F - 42.3 °F 81% 30.48 in 10.0 mi East 6.9 mph - N/A   Clear